Platteville, WI

7:04 AM CST on December 15, 2019 (GMT -0600)
Platteville Municipal

Weather History for KPVB - November, 2019

Change the Weather History Date:

Monday, November 11, 2019

  Actual Average (KDBQ) Record (KDBQ)
Temperature  
Mean Temperature 18 °F -  
Max Temperature 27 °F 44 °F 71 °F (1927)
Min Temperature 8 °F 28 °F 6 °F (1986)
Degree Days  
Heating Degree Days 48    
Moisture  
Dew Point 12 °F    
Average Humidity 78    
Maximum Humidity 100    
Minimum Humidity 55    
Precipitation  
Precipitation 0.00 in - - ()
Sea Level Pressure  
Sea Level Pressure 30.37 in    
Wind  
Wind Speed 14 mph ()    
Max Wind Speed 23 mph    
Max Gust Speed 26 mph    
Visibility 7.0 miles    
Events      
Averages and records for this station are not official NWS values.
T = Trace of Precipitation, MM = Missing Value Source: Averaged Metar Reports

Daily Weather History Graph

Daily Weather History Graph

Search for Another Location

Airport or City:

Astronomy

Nov. 11, 2019 Rise Set
Actual Time 6:48 AM CST 4:42 PM CST
Civil Twilight 6:17 AM CST 5:13 PM CST
Nautical Twilight 5:44 AM CST 5:46 PM CST
Astronomical Twilight 5:10 AM CST 6:20 PM CST
Moon 4:40 PM CST (11/11) 5:36 AM CST (11/11)
Length of Visible Light 10h 55m
Length of Day
9h 54m
Waxing Gibbous, 99% of the Moon is Illuminated
Nov 11
Waxing Gibbous
Nov 12
Full
Nov 19
Last Quarter
Nov 26
New
Dec 4
First Quarter

Hourly Weather History & Observations

Time (CST) Temp. Windchill Dew Point Humidity Pressure Visibility Wind Dir Wind Speed Gust Speed Precip Events Conditions
12:15 AM 27.9 °F 16.8 °F 27.9 °F 100% 30.21 in 1.2 mi North 13.8 mph - N/A   Overcast
12:55 AM 27.1 °F 15.4 °F 27.1 °F 100% 30.21 in 1.5 mi North 15.0 mph - N/A   Overcast
1:15 AM 27.0 °F 16.7 °F 27.0 °F 100% 30.21 in 2.0 mi North 11.5 mph - N/A   Overcast
1:35 AM 25.9 °F 11.4 °F 25.9 °F 100% 30.22 in 1.8 mi North 21.9 mph 25.3 mph N/A   Overcast
1:55 AM 25.2 °F 13.3 °F 25.2 °F 100% 30.22 in 1.2 mi North 13.8 mph - N/A   Overcast
2:15 AM 24.4 °F 11.5 °F 24.4 °F 100% 30.24 in 1.8 mi North 16.1 mph - N/A   Overcast
2:35 AM 23.5 °F 9.4 °F 23.0 °F 98% 30.25 in 2.5 mi North 18.4 mph 25.3 mph N/A   Overcast
2:55 AM 22.6 °F 6.8 °F 22.3 °F 99% 30.25 in 1.5 mi North 23.0 mph 26.5 mph N/A   Overcast
3:15 AM 22.6 °F 9.2 °F 22.6 °F 100% 30.26 in 1.2 mi North 16.1 mph - N/A   Overcast
3:35 AM 21.9 °F 6.2 °F 21.7 °F 99% 30.25 in 1.2 mi North 21.9 mph 26.5 mph N/A   Overcast
4:15 AM 21.2 °F 6.8 °F 20.3 °F 96% 30.28 in 2.5 mi North 17.3 mph 23.0 mph N/A   Overcast
4:35 AM 21.2 °F 7.8 °F 20.3 °F 96% 30.28 in 2.5 mi North 15.0 mph 19.6 mph N/A   Overcast
4:55 AM 21.0 °F 6.6 °F 20.3 °F 97% 30.29 in 1.5 mi North 17.3 mph 23.0 mph N/A   Overcast
5:15 AM 20.3 °F 6.6 °F 19.2 °F 96% 30.30 in 2.5 mi NNE 15.0 mph 19.6 mph N/A   Overcast
5:35 AM 20.1 °F 8.8 °F 19.6 °F 98% 30.32 in 2.0 mi North 10.4 mph - N/A   Overcast
5:55 AM 20.3 °F 7.7 °F 19.9 °F 99% 30.32 in 2.5 mi North 12.7 mph - N/A   Overcast
6:15 AM 20.3 °F 9.0 °F 20.1 °F 99% 30.33 in 3.0 mi North 10.4 mph - N/A   Overcast
6:35 AM 20.1 °F 5.9 °F 19.4 °F 97% 30.33 in 2.5 mi North 16.1 mph 21.9 mph N/A   Overcast
6:55 AM 19.4 °F 5.5 °F 18.5 °F 96% 30.34 in 2.5 mi North 15.0 mph - N/A   Overcast
7:15 AM 19.4 °F 5.5 °F 18.9 °F 98% 30.35 in 1.8 mi North 15.0 mph 21.9 mph N/A   Overcast
7:35 AM 19.4 °F 6.6 °F 18.7 °F 97% 30.35 in 2.0 mi North 12.7 mph 18.4 mph N/A   Overcast
7:55 AM 19.2 °F 5.3 °F 18.3 °F 96% 30.37 in 3.0 mi NNW 15.0 mph 19.6 mph N/A   Overcast
8:35 AM 19.0 °F 5.6 °F 17.4 °F 93% 30.37 in 2.5 mi NNW 13.8 mph - N/A   Overcast
8:55 AM 19.0 °F 4.5 °F 17.4 °F 93% 30.37 in 3.0 mi NNW 16.1 mph 19.6 mph N/A   Overcast
9:15 AM 19.4 °F 6.6 °F 17.4 °F 92% 30.39 in 5.0 mi NNW 12.7 mph - N/A   Overcast
9:35 AM 19.2 °F 6.4 °F 15.8 °F 87% 30.38 in 7.0 mi NNW 12.7 mph 23.0 mph N/A   Overcast
9:55 AM 19.2 °F 4.7 °F 15.4 °F 85% 30.39 in 10.0 mi North 16.1 mph 20.7 mph N/A   Overcast
10:15 AM 19.4 °F 7.2 °F 14.9 °F 83% 30.39 in 10.0 mi NNW 11.5 mph 19.6 mph N/A   Overcast
10:35 AM 19.6 °F 4.3 °F 15.8 °F 85% 30.38 in 10.0 mi NNW 18.4 mph - N/A   Mostly Cloudy
10:55 AM 19.8 °F 5.4 °F 14.7 °F 81% 30.38 in 10.0 mi NNW 16.1 mph - N/A   Mostly Cloudy
11:15 AM 20.8 °F 5.9 °F 14.4 °F 76% 30.38 in 10.0 mi NNW 18.4 mph 23.0 mph N/A   Mostly Cloudy
11:35 AM 20.7 °F 5.7 °F 13.6 °F 74% 30.37 in 10.0 mi NNW 18.4 mph - N/A   Overcast
11:55 AM 20.3 °F 7.7 °F 12.9 °F 73% 30.37 in 10.0 mi NW 12.7 mph 21.9 mph N/A   Overcast
12:15 PM 21.0 °F 6.2 °F 11.7 °F 67% 30.36 in 10.0 mi North 18.4 mph 23.0 mph N/A   Overcast
12:35 PM 20.7 °F 6.1 °F 10.8 °F 66% 30.36 in 10.0 mi NNW 17.3 mph 20.7 mph N/A   Scattered Clouds
12:55 PM 20.5 °F 5.5 °F 9.7 °F 63% 30.35 in 10.0 mi NNW 18.4 mph 21.9 mph N/A   Scattered Clouds
1:15 PM 20.5 °F 5.0 °F 7.7 °F 58% 30.36 in 10.0 mi NNW 19.6 mph 24.2 mph N/A   Clear
1:35 PM 20.8 °F 6.8 °F 7.9 °F 57% 30.36 in 10.0 mi NNW 16.1 mph 23.0 mph N/A   Clear
1:55 PM 21.2 °F 6.4 °F 8.1 °F 57% 30.36 in 10.0 mi NNW 18.4 mph 21.9 mph N/A   Clear
2:15 PM 20.1 °F 6.4 °F 6.6 °F 56% 30.36 in 10.0 mi NNW 15.0 mph 23.0 mph N/A   Clear
2:35 PM 21.2 °F 6.0 °F 7.5 °F 56% 30.36 in 10.0 mi NNW 19.6 mph - N/A   Mostly Cloudy
2:55 PM 20.7 °F 6.6 °F 6.6 °F 55% 30.37 in 10.0 mi NW 16.1 mph 19.6 mph N/A   Mostly Cloudy
3:15 PM 20.3 °F 5.7 °F 6.6 °F 56% 30.37 in 10.0 mi NW 17.3 mph 21.9 mph N/A   Mostly Cloudy
3:35 PM 19.4 °F 6.0 °F 5.9 °F 56% 30.37 in 10.0 mi NW 13.8 mph 23.0 mph N/A   Mostly Cloudy
3:55 PM 18.5 °F 3.3 °F 5.9 °F 58% 30.37 in 10.0 mi NW 17.3 mph - N/A   Scattered Clouds
4:15 PM 18.3 °F 4.6 °F 5.5 °F 57% 30.38 in 10.0 mi NNW 13.8 mph - N/A   Scattered Clouds
4:35 PM 17.8 °F 3.4 °F 5.5 °F 59% 30.39 in 10.0 mi NNW 15.0 mph - N/A   Scattered Clouds
4:55 PM 17.6 °F 3.2 °F 5.9 °F 60% 30.39 in 10.0 mi NW 15.0 mph - N/A   Mostly Cloudy
5:15 PM 17.4 °F 4.1 °F 5.7 °F 60% 30.40 in 10.0 mi NNW 12.7 mph - N/A   Overcast
5:35 PM 17.2 °F 3.9 °F 7.2 °F 65% 30.41 in 10.0 mi NW 12.7 mph - N/A   Overcast
5:55 PM 16.5 °F 2.4 °F 12.6 °F 84% 30.42 in 2.5 mi NW 13.8 mph 20.7 mph N/A   Overcast
6:15 PM 16.3 °F 1.0 °F 9.1 °F 73% 30.42 in 10.0 mi NNW 16.1 mph 20.7 mph N/A   Mostly Cloudy
6:35 PM 16.3 °F 4.1 °F 8.2 °F 70% 30.43 in 10.0 mi NNW 10.4 mph - N/A   Mostly Cloudy
6:55 PM 16.0 °F 1.7 °F 5.0 °F 62% 30.43 in 10.0 mi NW 13.8 mph 17.3 mph N/A   Mostly Cloudy
7:15 PM 14.5 °F 2.7 °F 3.7 °F 62% 30.44 in 10.0 mi NW 9.2 mph - N/A   Scattered Clouds
7:35 PM 13.1 °F 0.9 °F 3.6 °F 66% 30.44 in 10.0 mi NW 9.2 mph - N/A   Scattered Clouds
7:55 PM 14.0 °F 1.2 °F 4.5 °F 66% 30.44 in 10.0 mi NW 10.4 mph 16.1 mph N/A   Mostly Cloudy
8:35 PM 14.0 °F -0.8 °F 5.7 °F 70% 30.46 in 10.0 mi NW 13.8 mph 18.4 mph N/A   Mostly Cloudy
8:55 PM 13.1 °F -4.2 °F 2.5 °F 63% 30.46 in 10.0 mi NNW 18.4 mph 21.9 mph N/A   Scattered Clouds
9:15 PM 12.7 °F -3.0 °F 1.2 °F 60% 30.47 in 10.0 mi NNW 15.0 mph 24.2 mph N/A   Clear
9:35 PM 11.8 °F -3.0 °F 0.9 °F 61% 30.47 in 10.0 mi NNW 12.7 mph 18.4 mph N/A   Clear
9:55 PM 11.5 °F -3.4 °F 0.5 °F 61% 30.47 in 10.0 mi NNW 12.7 mph 20.7 mph N/A   Clear
10:15 PM 11.1 °F -2.4 °F 1.2 °F 64% 30.48 in 10.0 mi NNW 10.4 mph 17.3 mph N/A   Clear
10:35 PM 10.9 °F -4.7 °F 1.0 °F 64% 30.48 in 10.0 mi NNW 13.8 mph - N/A   Clear
10:55 PM 10.2 °F -4.3 °F 0.5 °F 65% 30.48 in 10.0 mi NNW 11.5 mph - N/A   Clear
11:15 PM 10.0 °F -3.7 °F 0.3 °F 65% 30.49 in 10.0 mi NW 10.4 mph - N/A   Clear
11:35 PM 8.6 °F -4.7 °F 0.5 °F 70% 30.49 in 10.0 mi NW 9.2 mph - N/A   Clear
11:55 PM 9.3 °F -6.1 °F 0.1 °F 66% 30.49 in 10.0 mi NNW 12.7 mph 18.4 mph N/A   Clear